When you browse on this site, cookies collect data to enhance your experience and personalize the content and advertising you see.
Visit our Privacy Policy to learn more. By continuing to use the site, you agree to this use of cookies and data.
EN

Hourly Weather Shahtarsk

Today, 15 July, Wednesday

Time Temperature Precipitation Wind Pressure Humidity
00:00 +14°C° 0 mm 5 mps 736 mmHg 79%
01:00 +14°C° 0 mm 5 mps 736 mmHg 81%
02:00 +14°C° 0 mm 5 mps 736 mmHg 83%
03:00 +13°C° 0 mm 5 mps 736 mmHg 83%
04:00 +14°C° 0 mm 5 mps 737 mmHg 82%
05:00 +14°C° 0 mm 5 mps 737 mmHg 80%
06:00 +14°C° 0 mm 5 mps 738 mmHg 79%
07:00 +16°C° 0 mm 5 mps 738 mmHg 73%
08:00 +17°C° 0 mm 6 mps 738 mmHg 67%
09:00 +20°C° 0 mm 6 mps 739 mmHg 61%
10:00 +21°C° 0 mm 6 mps 739 mmHg 55%
11:00 +22°C° 0 mm 6 mps 739 mmHg 49%
12:00 +24°C° 0 mm 6 mps 739 mmHg 44%
13:00 +24°C° 0 mm 6 mps 739 mmHg 42%
14:00 +26°C° 0 mm 6 mps 739 mmHg 41%
15:00 +26°C° 0 mm 5 mps 740 mmHg 39%
16:00 +26°C° 0 mm 5 mps 740 mmHg 40%
17:00 +25°C° 0 mm 5 mps 739 mmHg 42%
18:00 +25°C° 0 mm 5 mps 739 mmHg 43%
19:00 +22°C° 0 mm 4 mps 740 mmHg 47%
20:00 +21°C° 0 mm 3 mps 740 mmHg 51%
21:00 +19°C° 0 mm 2 mps 740 mmHg 55%
22:00 +18°C° 0 mm 2 mps 740 mmHg 58%
23:00 +19°C° 0 mm 1 mps 740 mmHg 60%

Tomorrow, 16 July, Thursday

Time Temperature Precipitation Wind Pressure Humidity
00:00 +18°C° 0 mm 1 mps 740 mmHg 63%
01:00 +18°C° 0 mm 1 mps 740 mmHg 64%
02:00 +16°C° 0 mm 1 mps 740 mmHg 64%
03:00 +16°C° 0 mm 1 mps 740 mmHg 65%
04:00 +16°C° 0 mm 1 mps 740 mmHg 65%
05:00 +18°C° 0 mm 1 mps 740 mmHg 65%
06:00 +16°C° 0 mm 0 mps 740 mmHg 65%
07:00 +18°C° 0 mm 0 mps 740 mmHg 58%
08:00 +22°C° 0 mm 1 mps 740 mmHg 51%
09:00 +24°C° 0 mm 1 mps 740 mmHg 44%
10:00 +25°C° 0 mm 1 mps 740 mmHg 41%
11:00 +26°C° 0 mm 1 mps 740 mmHg 37%
12:00 +27°C° 0 mm 2 mps 740 mmHg 34%
13:00 +27°C° 0 mm 2 mps 740 mmHg 32%
14:00 +28°C° 0 mm 1 mps 739 mmHg 31%
15:00 +29°C° 0 mm 1 mps 739 mmHg 30%
16:00 +28°C° 0 mm 1 mps 739 mmHg 32%
17:00 +28°C° 0 mm 1 mps 739 mmHg 34%
18:00 +28°C° 0 mm 1 mps 738 mmHg 36%
19:00 +26°C° 0 mm 2 mps 738 mmHg 41%
20:00 +24°C° 0 mm 2 mps 739 mmHg 47%
21:00 +21°C° 0 mm 3 mps 739 mmHg 52%
22:00 +21°C° 0 mm 3 mps 738 mmHg 54%
23:00 +20°C° 0 mm 3 mps 738 mmHg 56%

Day after tomorrow, 17 July, Friday

Time Temperature Precipitation Wind Pressure Humidity
00:00 +19°C° 0 mm 3 mps 738 mmHg 58%
01:00 +19°C° 0 mm 3 mps 738 mmHg 59%
02:00 +19°C° 0 mm 3 mps 738 mmHg 60%
03:00 +18°C° 0 mm 3 mps 738 mmHg 61%
04:00 +19°C° 0 mm 3 mps 738 mmHg 61%
05:00 +19°C° 0 mm 3 mps 738 mmHg 61%
06:00 +19°C° 0 mm 3 mps 738 mmHg 62%
07:00 +20°C° 0 mm 3 mps 738 mmHg 59%
08:00 +21°C° 0 mm 3 mps 738 mmHg 56%
09:00 +22°C° 0 mm 4 mps 739 mmHg 53%
10:00 +25°C° 0 mm 4 mps 739 mmHg 48%
11:00 +26°C° 0 mm 4 mps 739 mmHg 44%
12:00 +28°C° 0 mm 4 mps 739 mmHg 39%
13:00 +28°C° 0 mm 4 mps 739 mmHg 39%
14:00 +28°C° 0 mm 4 mps 738 mmHg 38%
15:00 +29°C° 0 mm 3 mps 738 mmHg 37%
16:00 +28°C° 0 mm 3 mps 738 mmHg 39%
17:00 +28°C° 0 mm 3 mps 738 mmHg 40%
18:00 +28°C° 0 mm 3 mps 738 mmHg 42%
19:00 +26°C° 0 mm 3 mps 738 mmHg 47%
20:00 +25°C° 0 mm 3 mps 738 mmHg 51%
21:00 +22°C° 0 mm 3 mps 739 mmHg 56%
22:00 +23°C° 0 mm 2 mps 739 mmHg 59%
23:00 +21°C° 0 mm 2 mps 739 mmHg 62%

18 July, Saturday

Time Temperature Precipitation Wind Pressure Humidity
00:00 +20°C° 0 mm 2 mps 739 mmHg 65%
01:00 +20°C° 0 mm 2 mps 739 mmHg 66%
02:00 +20°C° 0 mm 2 mps 739 mmHg 68%
03:00 +19°C° 0 mm 2 mps 739 mmHg 69%
04:00 +19°C° 0 mm 2 mps 739 mmHg 70%
05:00 +19°C° 0 mm 2 mps 740 mmHg 70%
06:00 +19°C° 0 mm 3 mps 740 mmHg 70%
07:00 +21°C° 0 mm 2 mps 740 mmHg 65%
08:00 +23°C° 0 mm 2 mps 740 mmHg 59%
09:00 +25°C° 0 mm 2 mps 741 mmHg 54%
10:00 +26°C° 0 mm 2 mps 741 mmHg 50%
11:00 +27°C° 0 mm 2 mps 741 mmHg 45%
12:00 +29°C° 0 mm 2 mps 741 mmHg 40%
13:00 +29°C° 0 mm 2 mps 741 mmHg 40%
14:00 +29°C° 0 mm 2 mps 741 mmHg 40%
15:00 +29°C° 0 mm 2 mps 741 mmHg 39%
16:00 +29°C° 0 mm 2 mps 740 mmHg 40%
17:00 +28°C° 0 mm 2 mps 740 mmHg 40%
18:00 +28°C° 0 mm 2 mps 740 mmHg 40%
19:00 +27°C° 0 mm 2 mps 740 mmHg 44%
20:00 +25°C° 0 mm 2 mps 741 mmHg 49%
21:00 +23°C° 0 mm 2 mps 741 mmHg 53%
22:00 +21°C° 0 mm 2 mps 741 mmHg 54%
23:00 +21°C° 0 mm 2 mps 741 mmHg 55%

19 July, Sunday

Time Temperature Precipitation Wind Pressure Humidity
00:00 +20°C° 0 mm 2 mps 741 mmHg 56%
01:00 +19°C° 0 mm 2 mps 741 mmHg 59%
02:00 +19°C° 0 mm 2 mps 741 mmHg 62%
03:00 +18°C° 0 mm 2 mps 741 mmHg 65%
04:00 +18°C° 0 mm 2 mps 741 mmHg 66%
05:00 +19°C° 0 mm 2 mps 741 mmHg 68%
06:00 +19°C° 0 mm 2 mps 741 mmHg 69%
07:00 +21°C° 0 mm 2 mps 741 mmHg 63%
08:00 +23°C° 0 mm 2 mps 741 mmHg 57%
09:00 +25°C° 0 mm 3 mps 741 mmHg 51%
10:00 +26°C° 0 mm 3 mps 741 mmHg 46%
11:00 +28°C° 0 mm 3 mps 741 mmHg 42%
12:00 +29°C° 0 mm 3 mps 740 mmHg 37%
13:00 +29°C° 0 mm 3 mps 740 mmHg 36%
14:00 +30°C° 0 mm 3 mps 740 mmHg 34%
15:00 +30°C° 0 mm 3 mps 739 mmHg 33%
16:00 +30°C° 0 mm 3 mps 739 mmHg 35%
17:00 +29°C° 0 mm 3 mps 739 mmHg 37%
18:00 +29°C° 0 mm 4 mps 739 mmHg 39%
19:00 +27°C° 0 mm 3 mps 739 mmHg 45%
20:00 +25°C° 0 mm 3 mps 739 mmHg 51%
21:00 +22°C° 0 mm 3 mps 739 mmHg 58%
22:00 +22°C° 0 mm 3 mps 738 mmHg 56%
23:00 +21°C° 0 mm 3 mps 738 mmHg 55%

20 July, Monday

Time Temperature Precipitation Wind Pressure Humidity
00:00 +20°C° 0 mm 3 mps 738 mmHg 54%
01:00 +20°C° 0 mm 3 mps 738 mmHg 55%
02:00 +19°C° 0 mm 3 mps 738 mmHg 57%
03:00 +19°C° 0 mm 3 mps 738 mmHg 59%
04:00 +19°C° 0 mm 3 mps 738 mmHg 61%
05:00 +19°C° 0 mm 3 mps 738 mmHg 62%
06:00 +19°C° 0 mm 2 mps 738 mmHg 64%
07:00 +21°C° 0 mm 2 mps 737 mmHg 58%
08:00 +24°C° 0 mm 3 mps 737 mmHg 52%
09:00 +27°C° 0 mm 3 mps 737 mmHg 46%
10:00 +28°C° 0 mm 2 mps 737 mmHg 43%
11:00 +29°C° 0 mm 2 mps 737 mmHg 40%
12:00 +30°C° 0 mm 2 mps 737 mmHg 37%
13:00 +29°C° 0 mm 2 mps 737 mmHg 37%
14:00 +29°C° 0 mm 2 mps 736 mmHg 38%
15:00 +29°C° 0 mm 1 mps 736 mmHg 38%
16:00 +29°C° 0 mm 2 mps 736 mmHg 38%
17:00 +29°C° 0 mm 2 mps 735 mmHg 38%
18:00 +29°C° 0 mm 2 mps 735 mmHg 38%
19:00 +28°C° 0 mm 2 mps 735 mmHg 42%
20:00 +26°C° 0 mm 2 mps 735 mmHg 46%
21:00 +24°C° 0 mm 2 mps 734 mmHg 50%
22:00 +24°C° 0 mm 2 mps 734 mmHg 52%
23:00 +23°C° 0 mm 2 mps 734 mmHg 53%
Show more